Location: Coffee Creek Observatory
(38.8077°N, 94.7179°W)
Time: 17:23:04
(UTC-06:00)

Amateur Radio Satellites - All Passes

Search period start: 11 February 2016 16:53
Search period end: 12 February 2016 16:53
Location: Coffee Creek Observatory, 38.8077°N, 94.7179°W

Satellite Date Start Highest point End Downlink Frequencies (MHz)
Time Altitude Azimuth
AO-7 11 Feb 17:01:51 17:07:33 20° 268° (W) 17:13:17 29.400- 29.500
STARS 11 Feb 17:06:01 17:09:43 27° 291° (WNW) 17:13:24 437.465
Cosmos 2504 11 Feb 17:07:31 17:15:37 49° 271° (W) 17:23:10 435.465 / 435.565
BEESAT 2 11 Feb 17:16:34 17:20:35 78° 301° (WNW) 17:24:38 435.950
GOMX 1 11 Feb 17:35:12 17:38:44 18° 66° (ENE) 17:42:10 467.674
MOZHAYETS 4 11 Feb 17:35:51 17:39:15 21° 293° (WNW) 17:42:40
AIST 2 11 Feb 17:50:01 17:53:14 22° 112° (ESE) 17:56:28 435.215
O/OREOS (USA 219) 11 Feb 17:55:35 18:00:11 77° 251° (WSW) 18:04:46 437.305
CUTE-I 11 Feb 18:11:57 18:17:11 59° 259° (W) 18:22:29 437.470
STRAND 1 11 Feb 18:12:47 18:14:47 12° 90° (E) 18:16:46 437.568
BRITE-PL 11 Feb 18:14:51 18:20:33 81° 76° (ENE) 18:26:07 437.365/2234.400
PCSat 11 Feb 18:17:10 18:20:07 14° 43° (NE) 18:23:03 145.827
GONETS M04 11 Feb 18:19:04 18:24:05 16° 62° (ENE) 18:29:05
CUBESAT XI-V 11 Feb 18:20:52 18:25:32 64° 286° (WNW) 18:30:09 437.345
LilacSat-2 11 Feb 18:22:33 18:26:09 40° 262° (W) 18:29:45 437.200
Cubesat XI-IV 11 Feb 18:26:35 18:31:37 43° 261° (W) 18:36:42 437.490
BEESAT 3 11 Feb 18:29:57 18:31:11 11° 318° (NW) 18:32:25 437.485
RS-15 11 Feb 18:39:03 18:49:39 33° 37° (NE) 19:00:24 29.354- 29.394
AO-85 11 Feb 18:39:50 18:44:49 46° 53° (NE) 18:49:21 145.980
DOVE 4 11 Feb 18:42:57 18:47:41 41° 72° (ENE) 18:52:11 437.250
CUTE 1.7 + AOD 2 11 Feb 19:05:21 19:08:46 24° 69° (ENE) 19:12:12 437.475
HO-68 11 Feb 19:05:28 19:12:13 47° 67° (ENE) 19:19:01 435.675
PRISM 11 Feb 19:06:42 19:06:49 10° 91° (E) 19:06:57 437.425
SEEDS 11 Feb 19:08:35 19:11:38 20° 68° (ENE) 19:14:42 437.485
GOMX 1 11 Feb 19:11:05 19:16:23 56° 260° (W) 19:21:30 467.674
AAUSAT CUBESAT 2 11 Feb 19:18:13 19:20:39 15° 66° (ENE) 19:23:06 437.432
CUBEBUG 2 11 Feb 19:20:20 19:21:02 10° 64° (ENE) 19:21:44 437.445
CINEMA 3 11 Feb 19:23:15 19:27:24 35° 72° (ENE) 19:31:25 145.822/145.860
AIST 2 11 Feb 19:27:46 19:31:33 33° 308° (NW) 19:35:20 435.215
STRAND 1 11 Feb 19:49:17 19:54:27 73° 286° (WNW) 19:59:35 437.568
CANX-2 11 Feb 19:49:52 19:54:04 87° 251° (WSW) 19:58:19 2200.000
BRITE-PL 11 Feb 19:57:03 19:59:30 13° 271° (W) 20:01:56 437.365/2234.400
PCSat 11 Feb 19:58:51 20:04:19 87° 64° (ENE) 20:09:44 145.827
ISS 11 Feb 20:00:32 20:02:06 13° 17° (NNE) 20:03:39 145.825
ZACube-1 11 Feb 20:04:10 20:06:46 16° 67° (ENE) 20:09:21 437.345
Cosmos 2499 11 Feb 20:09:39 20:17:06 35° 72° (ENE) 20:24:01 435.465 / 435.565
FUNcube-1 11 Feb 20:11:47 20:14:41 19° 68° (ENE) 20:17:35 145.935
GONETS M04 11 Feb 20:13:27 20:22:19 83° 83° (E) 20:31:10
DELFI C3 11 Feb 20:16:17 20:18:27 14° 66° (ENE) 20:20:39 145.870
AO-85 11 Feb 20:21:18 20:24:53 20° 252° (WSW) 20:28:16 145.980
DOVE 4 11 Feb 20:21:39 20:25:27 21° 266° (W) 20:29:07 437.250
COMPASS 1 11 Feb 20:24:58 20:29:05 71° 260° (W) 20:33:15 437.405
PRISM 11 Feb 20:38:24 20:42:32 60° 286° (WNW) 20:46:36 437.425
Oscar 11 11 Feb 20:40:04 20:44:15 54° 74° (ENE) 20:48:28 145.826/435.025
CUTE 1.7 + AOD 2 11 Feb 20:41:02 20:44:31 25° 265° (W) 20:48:02 437.475
SEEDS 11 Feb 20:43:26 20:47:08 31° 264° (W) 20:50:53 437.485
UWE-3 11 Feb 20:49:09 20:53:24 78° 78° (ENE) 20:57:36 435.000/436.395/437.385
RS-15 11 Feb 20:51:29 21:03:44 86° 241° (WSW) 21:16:05 29.354- 29.394
AAUSAT CUBESAT 2 11 Feb 20:51:54 20:55:48 41° 262° (W) 20:59:45 437.432
CUBEBUG 2 11 Feb 20:52:50 20:57:09 67° 260° (W) 21:01:21 437.445
HO-68 11 Feb 20:53:48 21:00:03 32° 263° (W) 21:06:22 435.675
CINEMA 3 11 Feb 21:01:11 21:04:36 20° 266° (W) 21:07:55 145.822/145.860
AIST 1 11 Feb 21:21:26 21:25:34 41° 79° (ENE) 21:29:38
ISS 11 Feb 21:35:57 21:39:07 53° 35° (NE) 21:42:18 145.825
ZACube-1 11 Feb 21:38:49 21:42:45 39° 262° (W) 21:46:40 437.345
HUMSAT D 11 Feb 21:39:05 21:43:03 55° 75° (ENE) 21:47:03 437.325/437.525
50 SAT 11 Feb 21:39:54 21:40:32 10° 65° (ENE) 21:41:09 437.505
PCSat 11 Feb 21:45:31 21:46:53 11° 258° (WSW) 21:48:16 145.827
FUNcube-1 11 Feb 21:46:56 21:50:43 33° 263° (W) 21:54:30 145.935
DELFI C3 11 Feb 21:49:16 21:53:00 40° 262° (W) 21:56:47 145.870
VELOX 1 11 Feb 21:58:25 22:01:30 19° 66° (ENE) 22:04:34 145.980
Cosmos 2499 11 Feb 22:02:36 22:10:20 45° 272° (W) 22:17:31 435.465 / 435.565
UNISAT 6 11 Feb 22:07:56 22:11:43 28° 97° (E) 22:15:34 437.425
GONETS M04 11 Feb 22:12:24 22:17:59 19° 281° (WNW) 22:23:35
AISAT 11 Feb 22:14:37 22:18:26 28° 69° (ENE) 22:22:16 437.250
UKube-1 11 Feb 22:15:47 22:19:21 25° 68° (ENE) 22:22:55 .
Oscar 11 11 Feb 22:19:10 22:20:43 12° 269° (W) 22:22:15 145.826/435.025
CUBEBUG 1 11 Feb 22:27:54 22:31:48 31° 70° (ENE) 22:35:43 437.445
DX 1 11 Feb 22:30:59 22:35:08 44° 72° (ENE) 22:39:19 434.975-435.025
QB50P1 11 Feb 22:38:58 22:41:04 13° 92° (E) 22:43:09 145.935-145.965
ESTCUBE 1 11 Feb 22:44:22 22:48:50 65° 75° (ENE) 22:53:22 437.505/2401.250
ANTELSAT 11 Feb 22:52:29 22:56:52 89° 283° (WNW) 23:01:19 437.575/2403.000
TIGRISAT 11 Feb 22:58:37 23:02:58 80° 285° (WNW) 23:07:25 435.000
AIST 1 11 Feb 23:00:25 23:02:45 14° 275° (W) 23:05:04
RS-15 11 Feb 23:06:20 23:14:28 21° 261° (W) 23:22:39 29.354- 29.394
50 SAT 11 Feb 23:10:29 23:14:04 49° 260° (W) 23:17:42 437.505
ISS 11 Feb 23:13:26 23:15:14 14° 231° (SW) 23:17:03 145.825
HUMSAT D 11 Feb 23:18:27 23:19:02 10° 269° (W) 23:19:37 437.325/437.525
BUGSAT 1 11 Feb 23:21:52 23:24:47 19° 95° (E) 23:27:39 437.445
POLYITAN 1 11 Feb 23:30:47 23:34:56 56° 101° (E) 23:39:04 437.675
QB50P2 11 Feb 23:31:19 23:35:29 59° 100° (E) 23:39:38 145.880/145.840
VELOX 1 11 Feb 23:33:29 23:37:40 39° 261° (W) 23:41:52 145.980
UNISAT 6 11 Feb 23:44:48 23:48:19 24° 291° (WNW) 23:51:53 437.425
AISAT 11 Feb 23:51:13 23:54:53 25° 265° (W) 23:58:33 437.250
UKube-1 11 Feb 23:51:39 23:55:18 26° 264° (W) 23:58:58 .
SPROUT 11 Feb 23:56:17 00:00:34 77° 257° (WSW) 00:04:53 437.525
TISAT 1 11 Feb 23:57:08 00:01:02 38° 72° (ENE) 00:04:56 437.305
PHONESAT 2.4 11 Feb 23:59:42 00:02:45 36° 155° (SSE) 00:05:48 2401.200-2431.200
POPSAT HIP 1 12 Feb 00:00:30 00:04:40 65° 285° (WNW) 00:08:49 437.405
NANOSAT C BR1 12 Feb 00:03:48 00:07:57 61° 286° (WNW) 00:12:04 145.865
DUCHIFAT 1 12 Feb 00:04:12 00:08:21 63° 285° (WNW) 00:12:29 145.980
CUBEBUG 1 12 Feb 00:04:39 00:08:06 22° 265° (W) 00:11:35 437.445
CUSAT 1 12 Feb 00:04:50 00:09:41 18° 82° (E) 00:14:32 437.405
DX 1 12 Feb 00:08:58 00:11:32 15° 267° (W) 00:14:07 434.975-435.025
BEESAT 12 Feb 00:11:59 00:13:22 11° 61° (ENE) 00:14:44 436.000
QB50P1 12 Feb 00:13:04 00:17:05 45° 287° (WNW) 00:21:05 145.935-145.965
ESTCUBE 1 12 Feb 00:24:57 00:26:04 11° 270° (W) 00:27:11 437.505/2401.250
DANDE 12 Feb 00:55:13 01:01:24 26° 83° (E) 01:07:57 436.750
BUGSAT 1 12 Feb 00:56:41 01:00:11 29° 290° (WNW) 01:03:40 437.445
SWISSCUBE 12 Feb 01:01:06 01:05:31 39° 71° (ENE) 01:09:57 437.505
Cosmos 2491 12 Feb 01:04:32 01:11:42 27° 69° (ENE) 01:18:52 435.465 / 435.565
BEESAT 3 12 Feb 01:08:00 01:11:33 31° 52° (NE) 01:15:04 437.485
POLYITAN 1 12 Feb 01:08:38 01:10:15 12° 296° (WNW) 01:11:52 437.675
QB50P2 12 Feb 01:09:21 01:10:46 12° 296° (WNW) 01:12:12 145.880/145.840
TISAT 1 12 Feb 01:34:09 01:36:50 16° 267° (W) 01:39:32 437.305
BEESAT 2 12 Feb 01:36:14 01:40:01 39° 54° (NE) 01:43:45 435.950
PHONESAT 2.4 12 Feb 01:36:37 01:39:54 73° 351° (N) 01:43:11 2401.200-2431.200
ITUPSAT 1 12 Feb 01:38:45 01:43:31 86° 76° (ENE) 01:48:21 437.325
Oscar 19 12 Feb 01:41:04 01:46:11 67° 102° (ESE) 01:51:16 437.125/150
CUSAT 1 12 Feb 01:42:56 01:50:58 87° 95° (E) 01:58:59 437.405
BEESAT 12 Feb 01:45:42 01:50:27 79° 256° (WSW) 01:55:15 436.000
YUBILEINY 12 Feb 01:53:14 01:59:40 23° 81° (E) 02:06:08 435.215
JAS-2 12 Feb 02:10:53 02:16:28 85° 103° (ESE) 02:21:41 435.910
AIST 2 12 Feb 02:13:11 02:15:00 13° 43° (NE) 02:16:49 435.215
STARS 12 Feb 02:25:45 02:28:55 20° 67° (ENE) 02:32:04 437.465
Gurwin Techsat 1B 12 Feb 02:30:40 02:36:01 74° 103° (ESE) 02:41:19 435.225
DANDE 12 Feb 02:35:47 02:43:35 70° 281° (WNW) 02:52:05 436.750
SWISSCUBE 12 Feb 02:39:56 02:43:26 20° 266° (W) 02:46:58 437.505
BEESAT 3 12 Feb 02:46:08 02:49:07 21° 248° (WSW) 02:52:04 437.485
KKS-1 12 Feb 02:47:38 02:52:03 64° 74° (ENE) 02:56:28 437.445
ITAMSAT 1 12 Feb 02:54:59 03:00:12 64° 102° (ESE) 03:05:23 435.822/435.867
MOZHAYETS 4 12 Feb 02:58:47 03:02:47 31° 70° (ENE) 03:06:48
Cosmos 2491 12 Feb 03:00:30 03:09:05 63° 269° (W) 03:17:41 435.465 / 435.565
AO-7 12 Feb 03:09:36 03:16:32 29° 96° (E) 03:23:23 29.400- 29.500
PHONESAT 2.4 12 Feb 03:14:02 03:17:18 69° 7° (N) 03:20:34 2401.200-2431.200
BEESAT 2 12 Feb 03:15:04 03:17:35 16° 250° (WSW) 03:20:04 435.950
Oscar 19 12 Feb 03:22:10 03:24:55 15° 298° (WNW) 03:27:39 437.125/150
CUSAT 1 12 Feb 03:28:24 03:34:05 21° 295° (WNW) 03:39:42 437.405
YUBILEINY 12 Feb 03:46:50 03:55:34 70° 279° (W) 04:04:25 435.215
CUBESAT XI-V 12 Feb 03:49:11 03:50:26 11° 62° (ENE) 03:51:41 437.345
AIST 2 12 Feb 03:49:53 03:54:00 75° 242° (WSW) 03:58:06 435.215
Cosmos 2504 12 Feb 03:50:42 03:57:47 30° 83° (E) 04:05:03 435.465 / 435.565
SO-50 12 Feb 03:51:17 03:55:39 34° 114° (ESE) 04:00:06 436.795
JAS-2 12 Feb 03:58:48 04:00:37 12° 303° (WNW) 04:02:25 435.910
STARS 12 Feb 04:00:59 04:05:02 36° 262° (W) 04:09:06 437.465
HORYU 2 12 Feb 04:07:37 04:11:25 27° 97° (E) 04:15:11 437.375
Gurwin Techsat 1B 12 Feb 04:12:34 04:15:18 14° 299° (WNW) 04:18:02 435.225
DANDE 12 Feb 04:23:46 04:28:06 15° 301° (WNW) 04:32:33 436.750
KKS-1 12 Feb 04:27:54 04:29:01 11° 269° (W) 04:30:07 437.445
ITAMSAT 1 12 Feb 04:36:01 04:39:06 16° 298° (WNW) 04:42:11 435.822/435.867
MOZHAYETS 4 12 Feb 04:36:17 04:39:57 24° 265° (W) 04:43:38
PHONESAT 2.4 12 Feb 04:51:23 04:54:31 41° 203° (SSW) 04:57:36 2401.200-2431.200
AO-7 12 Feb 05:01:33 05:09:41 60° 293° (WNW) 05:17:46 29.400- 29.500
M-CUBED/EXP-1 PRIME 12 Feb 05:07:34 05:10:54 49° 290° (WNW) 05:14:27 437.505
AUBIESAT-1 12 Feb 05:15:05 05:18:29 49° 290° (WNW) 05:22:05 437.475
CUBESAT XI-V 12 Feb 05:22:27 05:27:08 78° 258° (WSW) 05:31:52 437.345
STRAND 1 12 Feb 05:27:03 05:30:15 17° 63° (ENE) 05:33:28 437.568
SO-50 12 Feb 05:31:50 05:36:10 30° 311° (NW) 05:40:33 436.795
Cosmos 2504 12 Feb 05:42:06 05:50:33 59° 282° (WNW) 05:59:21 435.465 / 435.565
HORYU 2 12 Feb 05:44:11 05:47:53 26° 291° (WNW) 05:51:34 437.375
YUBILEINY 12 Feb 05:50:38 05:54:10 13° 301° (WNW) 05:57:44 435.215
LilacSat-2 12 Feb 05:57:39 06:00:37 21° 95° (E) 06:03:34 437.200
BRITE-PL 12 Feb 06:22:36 06:26:25 25° 94° (E) 06:30:02 437.365/2234.400
O/OREOS (USA 219) 12 Feb 06:29:43 06:32:00 14° 99° (E) 06:34:20 437.305
CUTE-I 12 Feb 06:30:11 06:35:32 62° 101° (ESE) 06:40:50 437.470
Cubesat XI-IV 12 Feb 06:44:42 06:50:07 84° 103° (ESE) 06:55:30 437.490
AO-7 12 Feb 06:57:29 07:00:44 13° 314° (NW) 07:04:00 29.400- 29.500
STRAND 1 12 Feb 07:03:54 07:08:55 58° 259° (W) 07:14:00 437.568
GOMX 1 12 Feb 07:14:56 07:19:07 45° 98° (E) 07:23:07 467.674
GONETS M04 12 Feb 07:20:08 07:25:30 18° 78° (ENE) 07:30:51
PRISM 12 Feb 07:26:14 07:30:23 80° 77° (ENE) 07:34:36 437.425
LilacSat-2 12 Feb 07:31:52 07:34:52 23° 290° (WNW) 07:37:52 437.200
CANX-2 12 Feb 07:37:12 07:40:08 18° 93° (E) 07:43:03 2200.000
Cosmos 2504 12 Feb 07:44:20 07:46:04 11° 304° (WNW) 07:47:48 435.465 / 435.565
BRITE-PL 12 Feb 08:01:00 08:04:52 26° 292° (WNW) 08:08:30 437.365/2234.400
O/OREOS (USA 219) 12 Feb 08:06:35 08:10:55 49° 295° (WNW) 08:15:20 437.305
COMPASS 1 12 Feb 08:09:58 08:13:05 20° 94° (E) 08:16:12 437.405
CUTE-I 12 Feb 08:11:39 08:15:02 17° 298° (WNW) 08:18:24 437.470
DOVE 4 12 Feb 08:20:47 08:24:57 62° 285° (WNW) 08:29:01 437.250
HO-68 12 Feb 08:21:40 08:28:43 55° 101° (ESE) 08:35:43 435.675
CUTE 1.7 + AOD 2 12 Feb 08:26:19 08:30:34 58° 100° (E) 08:34:47 437.475
Cubesat XI-IV 12 Feb 08:27:10 08:29:25 13° 300° (WNW) 08:31:42 437.490
SEEDS 12 Feb 08:28:07 08:32:13 44° 99° (E) 08:36:18 437.485
Oscar 11 12 Feb 08:30:59 08:32:13 11° 90° (E) 08:33:27 145.826/435.025
AAUSAT CUBESAT 2 12 Feb 08:35:34 08:39:21 31° 97° (E) 08:43:06 437.432
UWE-3 12 Feb 08:40:58 08:43:41 16° 93° (E) 08:46:27 435.000/436.395/437.385
Cosmos 2499 12 Feb 08:43:49 08:51:06 31° 83° (E) 08:58:29 435.465 / 435.565
CUBEBUG 2 12 Feb 08:45:09 08:48:41 26° 96° (E) 08:52:16 437.445
JUGNU 12 Feb 08:52:03 08:53:50 11° 179° (S) 08:55:37 437.505
AO-85 12 Feb 08:53:00 08:57:09 24° 109° (ESE) 09:01:26 145.980
GOMX 1 12 Feb 08:54:26 08:56:46 14° 296° (WNW) 08:59:04 467.674
CINEMA 3 12 Feb 08:55:39 08:59:49 79° 283° (WNW) 09:04:01 145.822/145.860
PCSat 12 Feb 08:59:21 09:01:40 13° 103° (ESE) 09:03:59 145.827
UNISAT 6 12 Feb 09:06:13 09:09:29 22° 68° (ENE) 09:12:44 437.425
RS-15 12 Feb 09:08:29 09:13:23 14° 95° (E) 09:18:22 29.354- 29.394
CANX-2 12 Feb 09:12:09 09:16:05 36° 288° (WNW) 09:20:01 2200.000
GONETS M04 12 Feb 09:12:25 09:21:07 84° 277° (W) 09:29:54
ZACube-1 12 Feb 09:27:58 09:31:57 39° 98° (E) 09:36:01 437.345
DELFI C3 12 Feb 09:28:41 09:32:09 26° 96° (E) 09:35:34 145.870
FUNcube-1 12 Feb 09:35:32 09:39:37 46° 99° (E) 09:43:47 145.935
COMPASS 1 12 Feb 09:44:57 09:48:41 31° 289° (WNW) 09:52:26 437.405
AIST 1 12 Feb 09:49:37 09:53:18 27° 89° (E) 09:57:00
ANTELSAT 12 Feb 09:50:01 09:54:17 67° 75° (ENE) 09:58:32 437.575/2403.000
TIGRISAT 12 Feb 09:55:56 10:00:14 75° 75° (ENE) 10:04:29 435.000
CUTE 1.7 + AOD 2 12 Feb 10:04:10 10:05:54 12° 296° (WNW) 10:07:38 437.475
Oscar 11 12 Feb 10:04:25 10:08:42 59° 285° (WNW) 10:12:59 145.826/435.025
SEEDS 12 Feb 10:05:05 10:07:33 15° 294° (WNW) 10:10:01 437.485
HO-68 12 Feb 10:10:05 10:16:01 29° 299° (WNW) 10:21:56 435.675
AAUSAT CUBESAT 2 12 Feb 10:11:33 10:14:38 20° 292° (WNW) 10:17:42 437.432
BUGSAT 1 12 Feb 10:11:39 10:13:33 13° 65° (ENE) 10:15:25 437.445
UWE-3 12 Feb 10:16:22 10:20:17 38° 287° (WNW) 10:24:16 435.000/436.395/437.385
CUBEBUG 2 12 Feb 10:21:49 10:25:13 24° 290° (WNW) 10:28:41 437.445
POLYITAN 1 12 Feb 10:22:16 10:26:07 35° 72° (ENE) 10:29:58 437.675
QB50P2 12 Feb 10:22:43 10:26:37 37° 72° (ENE) 10:30:31 145.880/145.840
AO-85 12 Feb 10:32:10 10:37:21 49° 306° (NW) 10:42:43 145.980
SRMSAT 12 Feb 10:33:26 10:35:00 11° 176° (S) 10:36:34 437.500
Cosmos 2499 12 Feb 10:35:07 10:43:40 58° 282° (WNW) 10:52:26 435.465 / 435.565
PCSat 12 Feb 10:38:55 10:44:19 78° 299° (WNW) 10:49:47 145.827
ESTCUBE 1 12 Feb 10:39:37 10:42:17 15° 92° (E) 10:44:55 437.505/2401.250
UNISAT 6 12 Feb 10:42:15 10:46:03 30° 263° (W) 10:49:49 437.425
50 SAT 12 Feb 10:44:09 10:46:32 16° 94° (E) 10:48:56 437.505
POPSAT HIP 1 12 Feb 10:51:23 10:55:36 77° 76° (ENE) 10:59:50 437.405
NANOSAT C BR1 12 Feb 10:54:19 10:58:32 81° 76° (ENE) 11:02:47 145.865
DUCHIFAT 1 12 Feb 10:54:30 10:58:43 78° 76° (ENE) 11:02:55 145.980
HUMSAT D 12 Feb 10:59:07 11:03:15 63° 285° (WNW) 11:07:26 437.325/437.525
QB50P1 12 Feb 11:03:46 11:07:59 75° 257° (WSW) 11:12:13 145.935-145.965
DELFI C3 12 Feb 11:03:47 11:06:54 22° 291° (WNW) 11:10:01 145.870
ZACube-1 12 Feb 11:05:13 11:07:57 17° 293° (WNW) 11:10:43 437.345
RS-15 12 Feb 11:12:27 11:23:26 73° 115° (ESE) 11:35:02 29.354- 29.394
FUNcube-1 12 Feb 11:13:09 11:15:31 15° 294° (WNW) 11:17:53 145.935
GONETS M04 12 Feb 11:14:26 11:19:20 16° 298° (WNW) 11:24:18
Oscar 19 12 Feb 11:22:20 11:23:10 10° 59° (ENE) 11:24:00 437.125/150
VELOX 1 12 Feb 11:24:47 11:28:57 40° 99° (E) 11:33:05 145.980
AIST 1 12 Feb 11:27:18 11:30:50 23° 285° (WNW) 11:34:24
UKube-1 12 Feb 11:39:18 11:43:33 54° 101° (E) 11:47:45 .
DANDE 12 Feb 11:39:37 11:42:50 14° 57° (ENE) 11:45:41 436.750
AISAT 12 Feb 11:41:49 11:46:13 68° 102° (ESE) 11:50:33 437.250
BUGSAT 1 12 Feb 11:44:23 11:48:29 52° 260° (W) 11:52:34 437.445
SPROUT 12 Feb 11:44:35 11:47:42 20° 94° (E) 11:50:48 437.525
CUBEBUG 1 12 Feb 11:53:24 11:57:46 75° 101° (E) 12:02:05 437.445
DX 1 12 Feb 11:56:16 12:00:38 81° 285° (WNW) 12:04:57 434.975-435.025
POLYITAN 1 12 Feb 11:59:11 12:02:02 17° 266° (W) 12:04:53 437.675
QB50P2 12 Feb 11:59:47 12:02:33 17° 267° (W) 12:05:19 145.880/145.840
Gurwin Techsat 1B 12 Feb 12:14:14 12:16:32 13° 60° (ENE) 12:18:51 435.225
ESTCUBE 1 12 Feb 12:14:57 12:19:19 47° 287° (WNW) 12:23:39 437.505/2401.250
50 SAT 12 Feb 12:17:14 12:20:37 31° 288° (WNW) 12:24:00 437.505
AO-85 12 Feb 12:18:10 12:19:12 10° 326° (NW) 12:20:15 145.980
JAS-2 12 Feb 12:19:59 12:26:44 37° 68° (ENE) 12:32:58 435.910
SRMSAT 12 Feb 12:22:29 12:23:13 10° 187° (S) 12:23:58 437.500
CUSAT 1 12 Feb 12:23:52 12:29:12 52° 76° (ENE) 12:33:11 437.405
SO-50 12 Feb 12:24:08 12:28:03 24° 47° (NE) 12:31:51 436.795
PCSat 12 Feb 12:26:08 12:28:38 13° 318° (NW) 12:31:08 145.827
ITAMSAT 1 12 Feb 12:37:13 12:38:10 10° 59° (ENE) 12:39:07 435.822/435.867
Cosmos 2499 12 Feb 12:37:41 12:38:55 10° 303° (WNW) 12:40:09 435.465 / 435.565
Oscar 19 12 Feb 12:56:29 13:01:40 85° 74° (ENE) 13:06:51 437.125/150
VELOX 1 12 Feb 13:02:10 13:05:06 18° 294° (WNW) 13:08:01 145.980
SWISSCUBE 12 Feb 13:05:12 13:06:20 11° 90° (E) 13:07:28 437.505
UKube-1 12 Feb 13:17:03 13:19:07 13° 296° (WNW) 13:21:12 .
TISAT 1 12 Feb 13:17:35 13:21:47 84° 100° (E) 13:25:57 437.305
SPROUT 12 Feb 13:19:56 13:23:44 32° 289° (WNW) 13:27:30 437.525
DANDE 12 Feb 13:20:29 13:27:09 82° 263° (W) 13:32:04 436.750
AISAT 12 Feb 13:20:49 13:22:06 11° 298° (WNW) 13:23:23 437.250
RS-15 12 Feb 13:26:43 13:36:53 37° 321° (NW) 13:47:35 29.354- 29.394
ITUPSAT 1 12 Feb 13:41:09 13:45:05 24° 95° (E) 13:48:59 437.325
BEESAT 12 Feb 13:47:30 13:51:41 29° 96° (E) 13:55:49 436.000
Gurwin Techsat 1B 12 Feb 13:50:27 13:55:46 81° 257° (WSW) 14:01:06 435.225
YUBILEINY 12 Feb 13:58:41 14:07:23 57° 78° (ENE) 14:15:58 435.215
SO-50 12 Feb 14:04:12 14:08:43 42° 245° (WSW) 14:13:04 436.795
JAS-2 12 Feb 14:04:27 14:11:36 43° 262° (W) 14:18:13 435.910
Cosmos 2491 12 Feb 14:04:31 14:11:54 32° 84° (E) 14:19:16 435.465 / 435.565
AO-7 12 Feb 14:07:08 14:14:33 37° 61° (ENE) 14:21:57 29.400- 29.500
CUSAT 1 12 Feb 14:08:21 14:10:23 12° 282° (WNW) 14:12:15 437.405
ITAMSAT 1 12 Feb 14:11:37 14:16:48 85° 75° (ENE) 14:22:02 435.822/435.867
ISS 12 Feb 14:14:39 14:17:35 31° 134° (SE) 14:20:30 145.825
M-CUBED/EXP-1 PRIME 12 Feb 14:22:39 14:23:02 10° 62° (ENE) 14:23:25 437.505
AUBIESAT-1 12 Feb 14:29:57 14:30:11 10° 61° (ENE) 14:30:23 437.475
SWISSCUBE 12 Feb 14:39:48 14:44:37 72° 286° (WNW) 14:49:23 437.505
KKS-1 12 Feb 14:41:41 14:43:47 13° 92° (E) 14:45:54 437.445
HORYU 2 12 Feb 15:04:53 15:08:16 22° 67° (ENE) 15:11:40 437.375
ITUPSAT 1 12 Feb 15:18:38 15:22:56 33° 291° (WNW) 15:27:13 437.325
BEESAT 12 Feb 15:25:18 15:29:22 28° 292° (WNW) 15:33:26 436.000
Cosmos 2504 12 Feb 15:36:56 15:45:14 51° 76° (ENE) 15:52:55 435.465 / 435.565
RS-15 12 Feb 15:46:48 15:54:22 19° 355° (N) 16:02:10 29.354- 29.394
ISS 12 Feb 15:51:10 15:54:01 27° 331° (NNW) 15:56:52 145.825
STARS 12 Feb 15:51:21 15:55:31 42° 99° (E) 15:59:40 437.465
M-CUBED/EXP-1 PRIME 12 Feb 15:53:52 15:57:22 46° 255° (WSW) 16:00:40 437.505
YUBILEINY 12 Feb 15:56:21 16:03:36 30° 277° (W) 16:10:49 435.215
AO-7 12 Feb 15:59:00 16:07:02 50° 258° (WSW) 16:15:07 29.400- 29.500
Cosmos 2491 12 Feb 15:59:53 16:08:17 52° 283° (WNW) 16:16:45 435.465 / 435.565
AUBIESAT-1 12 Feb 16:00:56 16:04:26 46° 255° (WSW) 16:07:44 437.475
CUTE-I 12 Feb 16:15:14 16:16:50 11° 59° (ENE) 16:18:27 437.470
KKS-1 12 Feb 16:16:21 16:20:39 51° 287° (WNW) 16:24:56 437.445
Cubesat XI-IV 12 Feb 16:28:19 16:31:21 16° 61° (ENE) 16:34:24 437.490
MOZHAYETS 4 12 Feb 16:31:20 16:36:00 88° 103° (ESE) 16:40:40
BEESAT 3 12 Feb 16:34:55 16:38:53 87° 120° (ESE) 16:42:53 437.485
O/OREOS (USA 219) 12 Feb 16:38:57 16:42:41 24° 60° (ENE) 16:46:24 437.305
HORYU 2 12 Feb 16:40:43 16:44:39 31° 263° (W) 16:48:36 437.375
